TimeCST,TemperatureF,Dew PointF,Humidity,Sea Level PressureIn,VisibilityMPH,Wind Direction,Wind SpeedMPH,Gust SpeedMPH,PrecipitationIn,Events,Conditions,WindDirDegrees,DateUTC
12:10 AM,46.4,42.8,87,30.01,2.5,WNW,9.2,-,N/A,,Overcast,290,2013-01-17 06:10:00
12:33 AM,46.4,42.8,87,30.01,4.0,WNW,8.1,-,N/A,,Overcast,300,2013-01-17 06:33:00
12:56 AM,46.0,42.1,86,29.99,4.0,WNW,10.4,-,N/A,,Overcast,290,2013-01-17 06:56:00
1:45 AM,44.6,41.0,87,30.01,5.0,WNW,8.1,-,N/A,,Overcast,300,2013-01-17 07:45:00
1:56 AM,45.0,41.0,86,29.98,7.0,WNW,9.2,-,N/A,,Overcast,290,2013-01-17 07:56:00
2:25 AM,44.6,41.0,87,30.01,8.0,West,8.1,-,N/A,,Overcast,280,2013-01-17 08:25:00
2:45 AM,44.6,41.0,87,30.01,9.0,West,6.9,-,N/A,,Overcast,270,2013-01-17 08:45:00
2:56 AM,45.0,39.9,82,29.98,8.0,West,9.2,-,N/A,,Overcast,270,2013-01-17 08:56:00
3:18 AM,44.6,41.0,87,30.02,3.0,West,8.1,-,0.00,Rain,Light Rain,260,2013-01-17 09:18:00
3:56 AM,44.1,41.0,89,29.99,7.0,West,11.5,-,0.00,,Overcast,270,2013-01-17 09:56:00
4:14 AM,44.6,41.0,87,30.02,3.0,West,11.5,-,0.00,Rain,Light Rain,260,2013-01-17 10:14:00
4:33 AM,44.6,39.2,81,30.03,4.0,West,13.8,-,0.00,Rain,Light Rain,260,2013-01-17 10:33:00
4:47 AM,42.8,39.2,87,30.04,3.0,West,16.1,25.3,0.00,Rain,Light Rain,260,2013-01-17 10:47:00
4:56 AM,43.0,39.0,86,30.01,6.0,West,15.0,23.0,0.00,,Overcast,270,2013-01-17 10:56:00
5:08 AM,42.8,37.4,81,30.05,4.0,West,16.1,21.9,N/A,,Overcast,270,2013-01-17 11:08:00
5:19 AM,42.8,37.4,81,30.05,9.0,West,12.7,23.0,N/A,,Overcast,270,2013-01-17 11:19:00
5:41 AM,41.0,37.4,87,30.05,6.0,West,15.0,-,0.00,,Drizzle,270,2013-01-17 11:41:00
5:56 AM,41.0,37.0,86,30.02,9.0,West,9.2,-,0.00,,Overcast,270,2013-01-17 11:56:00
6:26 AM,41.0,37.4,87,30.06,10.0,West,11.5,17.3,N/A,,Overcast,260,2013-01-17 12:26:00
6:56 AM,39.9,36.0,86,30.04,6.0,West,15.0,20.7,0.00,,Drizzle,270,2013-01-17 12:56:00
7:56 AM,39.9,36.0,86,30.07,3.0,West,13.8,-,0.00,,Drizzle,280,2013-01-17 13:56:00
8:17 AM,39.2,35.6,87,30.10,10.0,West,13.8,21.9,0.00,,Overcast,270,2013-01-17 14:17:00
8:56 AM,39.9,35.1,83,30.10,10.0,WNW,19.6,27.6,0.00,,Overcast,290,2013-01-17 14:56:00
9:56 AM,39.9,32.0,73,30.11,10.0,WNW,17.3,28.8,N/A,,Overcast,290,2013-01-17 15:56:00
10:56 AM,39.9,30.0,68,30.12,10.0,NW,24.2,32.2,N/A,,Overcast,310,2013-01-17 16:56:00
11:56 AM,42.1,30.0,62,30.11,10.0,NW,16.1,28.8,N/A,,Overcast,310,2013-01-17 17:56:00
12:56 PM,44.1,32.0,63,30.10,10.0,NW,18.4,28.8,N/A,,Overcast,310,2013-01-17 18:56:00
1:56 PM,46.0,32.0,58,30.11,10.0,NW,16.1,28.8,N/A,,Overcast,310,2013-01-17 19:56:00
2:56 PM,46.0,33.1,61,30.12,10.0,NW,16.1,24.2,N/A,,Overcast,310,2013-01-17 20:56:00
3:56 PM,46.0,33.1,61,30.15,10.0,NW,18.4,25.3,N/A,,Overcast,310,2013-01-17 21:56:00
4:20 PM,46.4,33.8,62,30.20,10.0,NW,19.6,27.6,N/A,,Mostly Cloudy,320,2013-01-17 22:20:00
4:56 PM,46.0,33.1,61,30.17,10.0,NW,19.6,25.3,N/A,,Scattered Clouds,310,2013-01-17 22:56:00
5:56 PM,45.0,33.1,63,30.21,10.0,NW,15.0,18.4,N/A,,Partly Cloudy,320,2013-01-17 23:56:00
6:56 PM,45.0,30.9,58,30.25,10.0,NNW,19.6,26.5,N/A,,Clear,340,2013-01-18 00:56:00
7:56 PM,44.1,30.9,60,30.26,10.0,NNW,15.0,23.0,N/A,,Clear,330,2013-01-18 01:56:00
8:56 PM,43.0,32.0,65,30.27,10.0,NNW,11.5,19.6,N/A,,Clear,330,2013-01-18 02:56:00
9:56 PM,42.1,32.0,67,30.27,10.0,NNW,12.7,-,N/A,,Clear,330,2013-01-18 03:56:00
10:56 PM,43.0,32.0,65,30.25,10.0,North,12.7,19.6,N/A,,Clear,350,2013-01-18 04:56:00
11:56 PM,44.1,32.0,63,30.26,10.0,NNW,10.4,21.9,N/A,,Clear,340,2013-01-18 05:56:00